sat.trackr.live / text

‹ back to catalog

STARLINK-32948

NORAD 63123 · 2025-039V

PAYLOAD ACTIVE UNKNOWN

§ Identity

Operator
Country
US
Launch date
2025-02-27
Launch site
AFETR
Launch vehicle
Mass (kg)
RCS (m²)

Purposes: comms

External: N2YO · Heavens-Above · Gunter

§ Orbital elements

Epoch: 2026-09-20T12:26:50.006112Z

Period
94.27 min
Inclination
42.9983°
Eccentricity
0.0001147
Mean motion
15.27589395 rev/d
Perigee alt
482.2 km
Apogee alt
483.8 km
Semi-major
6,861.2 km
B*
3.3348e-4
RAAN
352.4577°
Arg perigee
260.9086°
Mean anomaly
99.1635°
Rev number
8,786

§ Raw data

STARLINK-329481 63123U 25039V   26263.51863433  .00008928  00000+0  33348-3 0  99962 63123  42.9983 352.4577 0001147 260.9086  99.1635 15.27589395 87865

JSON: /api/v1/satellites/63123 · /tle

For live sub-satellite position, see the globe view (requires WebGL).

§ Visibility from observer

Set your observer location to see the next 7 days of passes ≥ 10°. The values pass through the URL so the page stays shareable.

No JS? Fill the form by hand. The geolocation button needs JavaScript.